Regional Weather Roundup
Issued by NWS

Home | Current Version | Previous Version | Graphics & Text | Print | Product List | Glossary On
Versions: 1 2 3 4 5 6 7 8 9 10 11 12 13 14 15 16 17 18 19 20 21 22 23 24 25 26 27 28 29 30 31 32 33 34 35 36 37 38 39 40 41 42 43 44 45 46 47 48 49 50
000
ASUS43 KLOT 030412
RWRIL

ILLINOIS REGIONAL WEATHER ROUNDUP
NATIONAL WEATHER SERVICE CHICAGO/ROMEOVILLE IL
1000 PM CST FRI DEC 02 2016

NOTE: "FAIR" INDICATES FEW OR NO CLOUDS BELOW 12,000 FEET WITH NO
SIGNIFICANT WEATHER AND/OR OBSTRUCTIONS TO VISIBILITY.

* THESE STATIONS ARE NOT UNDER NWS QUALITY CONTROL. THEY ALSO MAY NOT
  REPORT WEATHER SUCH AS PRECIPITATION OR FOG.

ILZ001-002-007-009-015-016-024-030500-
NORTHWEST ILLINOIS

CITY           SKY/WX    TMP DP  RH WIND       PRES   REMARKS
MOLINE         CLOUDY    35  26  69 NW7       30.34S WCI  29
STERLING*      CLOUDY    34  26  72 W6        30.34S WCI  29
SAVANNA*       CLOUDY    33  25  72 W9        30.34R WCI  26
$$

ILZ003-004-008-010-011-017-018-030500-
NORTH CENTRAL ILLINOIS

CITY           SKY/WX    TMP DP  RH WIND       PRES   REMARKS
ROCKFORD       NOT AVBL
FREEPORT*      CLOUDY    32  23  71 NW5       30.34S WCI  27
ROCHELLE*      CLOUDY    32  26  76 NW3       30.33S
DE KALB*       CLOUDY    32  24  72 NW8       30.32S WCI  25
$$

ILZ005-006-012>014-019>023-030500-
NORTHEAST ILLINOIS

CITY           SKY/WX    TMP DP  RH WIND       PRES   REMARKS
CHICAGO-OHARE  CLOUDY    35  24  64 NW8       30.31R WCI  29
CHICAGO-MIDWAY CLOUDY    36  24  62 W9        30.32R WCI  29
AURORA         CLOUDY    34  27  75 NW6       30.33R WCI  29
LANSING*       CLOUDY    35  26  70 W10       30.32R WCI  27
JOLIET*        CLOUDY    36  26  66 N6        30.34R WCI  31
WAUKEGAN       CLOUDY    34  23  64 VRB3      30.30S
DUPAGE AIRPORT CLOUDY    33  22  63 W7        30.31R WCI  27
KANKAKEE*      CLOUDY    37  28  72 NW6       30.34R WCI  32
WHEELING       CLOUDY    34  22  61 NW8       30.33R WCI  27
ROMEOVILLE*    CLOUDY    34  28  77 NW8       30.32S WCI  27
NORTHERLY ISL    N/A     37  25  62 NW8         N/A  WCI  31
$$

LMZ740>746-030500-
SOUTHERN LAKE MICHIGAN

STATION/POSITION SKY/WX   TEMP    WIND        PRES    VSBY  WAVE
                          AIR SEA DIR/SP/G                  HT/PER
                          (F)     (DEG/KT/KT) (MB)    (MI)  (FT/S)
SOUTHERN BUOY              37 49  300/ 10/ 14 1025.9S         2/ 5
HARRISON CRIB              37     320/ 12/ 14   N/A
BURNHAM HARBOR             37     260/  6/ 10   N/A
CALUMET HARBOR             36     250/  6/ 11 1025.8R
BURNS HARBOR               39     270/ 12/ 14 1026.4R
MICHIGAN CITY              38     270/ 11/ 13   N/A
$$

ILZ025>027-034>036-040-047-049-050-058-095>099-030500-
WEST-CENTRAL ILLINOIS

CITY           SKY/WX    TMP DP  RH WIND       PRES   REMARKS
QUINCY         MOCLDY    36  31  82 NE5       30.33S WCI  32
GALESBURG*     CLOUDY    35  30  83 CALM      30.34F
MACOMB*        CLOUDY    37  32  84 N3        30.35F
JACKSONVILLE*  CLOUDY    35  31  82 N3        30.34S
$$

ILZ028>032-037-038-041>044-048-051>054-059>061-030500-
CENTRAL ILLINOIS

CITY           SKY/WX    TMP DP  RH WIND       PRES   REMARKS
PONTIAC        CLOUDY    37  32  82 NW8       30.35R WCI  30
BLOOMINGTON    CLOUDY    36  27  69 NW14      30.34S WCI  27
DECATUR        CLOUDY    41  32  70 NW5       30.33F
PEORIA         NOT AVBL
SPRINGFIELD    CLOUDY    40  33  76 N6        30.33F
TAYLORVILLE    NOT AVBL
$$

ILZ033-039-045-046-055>057-062-063-030500-
EAST-CENTRAL ILLINOIS

CITY           SKY/WX    TMP DP  RH WIND       PRES   REMARKS
CHAMPAIGN      CLOUDY    39  33  79 NW6       30.33S WCI  35
RANTOUL*       CLOUDY    39  33  78 NW7       30.33S WCI  34
$$

ILZ079-100>102-030500-
SOUTHWEST ILLINOIS

CITY           SKY/WX    TMP DP  RH WIND       PRES   REMARKS
ALTON          PTCLDY    32  30  93 CALM      30.35R
BELLEVILLE     CLOUDY    30  29  99 CALM      30.33F
CAHOKIA*       CLOUDY    31  28  89 CALM      30.34F
SPARTA*        CLOUDY    33  29  86 E3        30.35F
$$

ILZ064>066-069>071-074>076-080>082-084>086-088>090-092>094-030500-
SOUTH-CENTRAL ILLINOIS

CITY           SKY/WX    TMP DP  RH WIND       PRES   REMARKS
CARBONDALE     CLEAR     34  31  88 CALM      30.35S
CAIRO*         CLEAR     38  31  76 NE6       30.33F WCI  33
CENTRALIA*     CLOUDY    31  30  98 CALM      30.34S
SALEM*         CLEAR     33  30  91 CALM      30.35S
METROPOLIS*    CLEAR     35  30  82 CALM      30.35S
$$

ILZ067-068-072-073-078-083-087-091-030500-
SOUTHEAST ILLINOIS

CITY           SKY/WX    TMP DP  RH WIND       PRES   REMARKS
LAWRENCEVILLE  CLOUDY    39  32  76 CALM      30.36R
FLORA*         CLOUDY    35  32  88 CALM      30.36S
FAIRFIELD*     PTCLDY    33  31  96 CALM      30.35S
HARRISBURG*    PTCLDY    36  32  86 NE7       30.36S WCI  30
ROBINSON*      CLOUDY    38  33  83 W6        30.37R WCI  33
CARMI*         PTCLDY    32  31  96 CALM      30.36S
$$

ABBREVIATIONS USED IN REMARKS
   TC - TEMPERATURE IN CELSIUS
  WCI - WIND CHILL INDEX
   HX - HEAT INDEX
  VSB - VISIBILITY
$$





USA.gov is the U.S. government's official web portal to all federal, state and local government web resources and services.